ONEWEB-0704, 61609

Orbit data source: Space-Track

ONEWEB-0704, 61609 is a payload satellite owned by Eut. One Web (UK) in LEO that was launched on Sun, 20 Oct 2024 UTC via an FALCON 9 launch vehicle from the Air Force Western Test Range (AFWTR). Payload-class satellites include a variety of spacecraft equipped with specific instruments for various scientific and technological missions. These include communications satellites like Starlink; space stations such as the ISS; scientific satellites like the Hubble; Earth observation satellites from companies like Planet Labs, Umbra, and HawkEye 360; GPS; miniature CubeSats for education and research; and military/defense satellites.

Loading next visibility...
Identifier
61609, 2024-188R
Orbit
LEO
Last TLE update
8 hours ago
Origin
Manufacturer
One Web
Mission
Operational Commercial Communications
Bus & Motor
ARROW, Unknown motor
Mass
148 kg wet, ~140 kg dry
Launch date (UTC)
2024-10-20 (8 months ago)
Launch vehicle
FALCON 9
Launch site
Air Force Western Test Range (AFWTR)
Object type
Payload
Rocket body
Debris
Shape & HBR
Trap Box + 2 Pan, 5 m
Radar Cross Section
2.032 m², Large (>1 m²)

Expand to show TLE details & history

TLE from 8 hours ago
0 ONEWEB-0704
1 61609U 24188R   25182.81758400 -.00000620  00000-0 -18120-2 0  9990
2 61609  87.8852 106.0665 0002749  61.2047 298.9356 13.10374608 37407
Epoch: 2025-07-01T19:37Z
TLE epoch observation values (Epoch: 2025-07-01T19:37:19.257Z)
Latitude
-0.00004°
Longitude
-108.37133°
Altitude
1,223.587 km
Speed
7.243 km/s
True Right ascension
07h 04m 15s
True Declination
0° 00' 00"
Sunlit
Object was in daylight at epoch
Visualization orbit readout
Latitude
8.53052°
Longitude
71.24497°
Altitude
1,224.652 km
Speed
7.242 km/s
Apparent Right ascension
21h 44m 58s
Apparent Declination
-26° 06' 54"
Sunlit
Object is in full shadow
Visualization observer readout
Local Sidereal Time
15:30:44
Azimuth
108.615° ESE
Elevation
-18.976°
Doppler factor
1
Orbital elements
Apogee altitude
1,220.918 km
Perigee altitude
1,216.742 km
Semi-major axis
7,596.967 km
Eccentricity
0.00027
Inclination
87.8852°
RAAN
106.0665°
Arg. of periapsis
61.2047°
True anomaly
Unknown
Mean anomaly
298.9356°
Eccentric anomaly
Unknown
Mean motion
3.2778 °/min
Orbital period
109.83 mins
BSTAR
-0.001812
Loading maneuver chart data...
Loading SW <> Apogee altitude chart data...
Loading historical data...
Loading historical data...
Loading historical data...
Loading historical data...
Loading historical data...
Loading historical data...
Loading historical data...

ONEWEB-0704 Visibility forecast

Observer location: undefined°, undefined°

Span
Click to sort rows by Start time (UTC) header in descending order
Start Az.
Max El. time (UTC)
Max El. Az.
Max El.
End time (UTC)
End Az.
7 mins2025-07-02 05:25:26.328Z42.147° NE2025-07-02 05:28:26.328Z68.295° E15.748°2025-07-02 05:32:26.328Z103.834° ESE
13 mins2025-07-02 07:13:26.328Z357.768° N2025-07-02 07:19:26.328Z320.531° NNW44.662°2025-07-02 07:26:26.328Z184.608° SSW
5 mins2025-07-02 09:06:26.328Z307.815° NW2025-07-02 09:08:26.328Z290.668° WNW13.359°2025-07-02 09:11:26.328Z265.469° W
8 mins2025-07-02 17:46:26.328Z104.604° ESE2025-07-02 17:49:26.328Z76.986° E17.879°2025-07-02 17:54:26.328Z33.178° NE
12 mins2025-07-02 19:33:26.328Z187.853° SSW2025-07-02 19:38:26.328Z238.671° WSW43.723°2025-07-02 19:45:26.328Z356.576° N
|